TimeCST,TemperatureF,Dew PointF,Humidity,Sea Level PressureIn,VisibilityMPH,Wind Direction,Wind SpeedMPH,Gust SpeedMPH,PrecipitationIn,Events,Conditions,WindDirDegrees,DateUTC
12:15 AM,25.7,23.9,93,29.95,7.0,East,3.5,-,N/A,,Overcast,90,2013-12-02 06:15:00
12:35 AM,25.7,24.3,94,29.94,7.0,Calm,Calm,-,N/A,,Overcast,0,2013-12-02 06:35:00
12:55 AM,26.6,24.8,93,29.94,7.0,Calm,Calm,-,N/A,,Overcast,0,2013-12-02 06:55:00
1:15 AM,26.6,24.8,93,29.94,7.0,East,4.6,-,N/A,,Overcast,100,2013-12-02 07:15:00
1:35 AM,26.4,24.6,93,29.93,7.0,ESE,5.8,-,N/A,,Overcast,120,2013-12-02 07:35:00
1:55 AM,26.6,24.3,91,29.93,7.0,Calm,Calm,-,N/A,,Overcast,0,2013-12-02 07:55:00
2:15 AM,25.7,23.9,93,29.92,7.0,ESE,5.8,-,N/A,,Overcast,110,2013-12-02 08:15:00
2:35 AM,26.6,25.2,94,29.91,7.0,ESE,8.1,-,N/A,,Overcast,120,2013-12-02 08:35:00
2:55 AM,27.7,25.3,91,29.91,10.0,East,3.5,-,N/A,,Overcast,90,2013-12-02 08:55:00
3:15 AM,27.9,25.7,92,29.90,10.0,ESE,4.6,-,N/A,,Overcast,120,2013-12-02 09:15:00
3:35 AM,27.9,25.7,92,29.89,10.0,ESE,3.5,-,N/A,,Overcast,110,2013-12-02 09:35:00
3:55 AM,28.2,25.7,90,29.88,10.0,East,5.8,-,N/A,,Overcast,100,2013-12-02 09:55:00
4:15 AM,28.4,26.1,91,29.87,10.0,ESE,8.1,-,N/A,,Overcast,120,2013-12-02 10:15:00
4:35 AM,28.8,26.1,90,29.86,10.0,ESE,6.9,-,N/A,,Overcast,120,2013-12-02 10:35:00
4:55 AM,28.9,26.2,90,29.86,10.0,ESE,4.6,-,N/A,,Overcast,120,2013-12-02 10:55:00
5:15 AM,28.8,26.1,90,29.85,10.0,ESE,6.9,-,N/A,,Overcast,110,2013-12-02 11:15:00
5:35 AM,29.1,26.4,90,29.83,10.0,ESE,6.9,-,N/A,,Overcast,110,2013-12-02 11:35:00
5:55 AM,29.3,26.6,90,29.83,7.0,ESE,6.9,-,N/A,Snow,Light Snow,110,2013-12-02 11:55:00
6:15 AM,28.9,26.6,91,29.82,7.0,ESE,8.1,-,N/A,,Mostly Cloudy,110,2013-12-02 12:15:00
6:35 AM,29.3,27.1,92,29.81,7.0,ESE,8.1,-,N/A,,Overcast,110,2013-12-02 12:35:00
6:55 AM,30.0,27.1,89,29.82,10.0,SE,4.6,-,N/A,,Overcast,140,2013-12-02 12:55:00
7:15 AM,30.2,27.5,90,29.82,7.0,ESE,5.8,-,N/A,,Overcast,120,2013-12-02 13:15:00
7:35 AM,30.6,27.7,89,29.82,5.0,SE,9.2,-,N/A,Snow,Light Snow,130,2013-12-02 13:35:00
7:55 AM,30.0,28.0,92,29.81,2.5,SE,8.1,-,N/A,Snow,Light Snow,130,2013-12-02 13:55:00
8:15 AM,30.2,28.4,93,29.81,4.0,SE,6.9,-,N/A,Snow,Light Snow,130,2013-12-02 14:15:00
8:35 AM,30.2,28.9,95,29.81,4.0,ESE,5.8,-,N/A,Snow,Light Snow,120,2013-12-02 14:35:00
8:55 AM,30.2,29.1,96,29.80,2.5,ESE,8.1,-,N/A,Snow,Light Snow,120,2013-12-02 14:55:00
9:15 AM,30.4,29.5,96,29.79,1.8,ESE,8.1,-,N/A,Snow,Light Snow,120,2013-12-02 15:15:00
9:35 AM,30.6,29.8,97,29.79,1.5,ESE,8.1,-,N/A,Snow,Light Snow,120,2013-12-02 15:35:00
9:55 AM,31.1,30.4,97,29.78,2.0,ESE,8.1,-,N/A,Snow,Light Snow,120,2013-12-02 15:55:00
10:15 AM,31.6,30.6,96,29.78,2.5,ESE,9.2,-,N/A,Snow,Light Snow,120,2013-12-02 16:15:00
10:35 AM,32.0,30.9,96,29.77,2.5,ESE,11.5,-,N/A,Snow,Light Snow,120,2013-12-02 16:35:00
10:55 AM,32.2,31.5,97,29.76,3.0,ESE,12.7,17.3,N/A,Snow,Light Snow,120,2013-12-02 16:55:00
11:15 AM,32.9,31.6,95,29.75,3.0,ESE,11.5,-,N/A,Snow,Light Snow,120,2013-12-02 17:15:00
11:35 AM,32.9,32.0,96,29.74,2.5,ESE,10.4,-,N/A,Snow,Light Snow,120,2013-12-02 17:35:00
11:55 AM,33.6,32.2,94,29.73,2.5,SE,10.4,-,N/A,Snow,Light Snow,130,2013-12-02 17:55:00
12:15 PM,33.8,32.5,95,29.73,3.0,SE,10.4,-,N/A,Snow,Light Snow,130,2013-12-02 18:15:00
12:35 PM,34.7,32.9,93,29.72,4.0,SE,10.4,-,N/A,,Overcast,130,2013-12-02 18:35:00
12:55 PM,35.2,33.1,92,29.71,5.0,SE,11.5,-,N/A,,Overcast,140,2013-12-02 18:55:00
1:15 PM,35.8,33.4,91,29.70,5.0,ESE,12.7,-,N/A,,Overcast,120,2013-12-02 19:15:00
1:35 PM,36.1,33.4,90,29.69,7.0,ESE,9.2,-,N/A,,Overcast,120,2013-12-02 19:35:00
1:55 PM,35.6,32.9,90,29.68,7.0,ESE,11.5,-,N/A,,Overcast,120,2013-12-02 19:55:00
2:15 PM,35.6,32.4,88,29.67,7.0,ESE,10.4,17.3,N/A,,Overcast,120,2013-12-02 20:15:00
2:35 PM,35.2,32.4,89,29.67,7.0,ESE,13.8,-,N/A,,Overcast,120,2013-12-02 20:35:00
2:55 PM,34.9,32.0,89,29.67,5.0,SE,10.4,-,N/A,,Overcast,130,2013-12-02 20:55:00
3:15 PM,34.9,32.2,90,29.67,5.0,ESE,11.5,-,N/A,,Overcast,120,2013-12-02 21:15:00
3:35 PM,34.9,32.0,89,29.67,5.0,ESE,10.4,-,N/A,,Overcast,120,2013-12-02 21:35:00
3:55 PM,34.5,32.0,90,29.67,5.0,ESE,11.5,18.4,N/A,,Overcast,120,2013-12-02 21:55:00
4:15 PM,34.2,32.0,92,29.67,3.0,ESE,12.7,-,N/A,Snow,Light Snow,110,2013-12-02 22:15:00
4:35 PM,33.6,32.2,94,29.66,2.5,ESE,12.7,-,N/A,Snow,Light Snow,110,2013-12-02 22:35:00
4:55 PM,33.4,32.4,96,29.66,2.5,ESE,10.4,-,N/A,Snow,Light Snow,110,2013-12-02 22:55:00
5:15 PM,33.1,32.9,99,29.66,1.2,ESE,11.5,-,N/A,Snow,Light Snow,120,2013-12-02 23:15:00
5:35 PM,32.9,32.9,100,29.66,1.0,ESE,11.5,-,N/A,Snow,Snow,110,2013-12-02 23:35:00
5:55 PM,32.9,32.9,100,29.65,0.8,ESE,11.5,-,N/A,Snow,Snow,110,2013-12-02 23:55:00
6:15 PM,32.9,32.9,100,29.65,1.0,ESE,11.5,-,N/A,Snow,Light Snow,110,2013-12-03 00:15:00
6:35 PM,33.1,33.1,100,29.65,1.5,ESE,12.7,-,N/A,Snow,Light Snow,110,2013-12-03 00:35:00
6:55 PM,33.1,33.1,100,29.64,1.8,ESE,17.3,20.7,N/A,Snow,Light Snow,110,2013-12-03 00:55:00
7:15 PM,33.3,33.3,100,29.65,1.8,ESE,11.5,18.4,N/A,Snow,Light Snow,110,2013-12-03 01:15:00
7:35 PM,33.4,33.1,99,29.64,4.0,ESE,12.7,20.7,N/A,Snow,Light Snow,120,2013-12-03 01:35:00
7:55 PM,33.8,33.3,98,29.65,4.0,ESE,16.1,19.6,0.01,Snow,Light Snow,120,2013-12-03 01:55:00
8:15 PM,33.8,33.3,98,29.66,2.5,SE,11.5,-,0.02,Snow,Light Snow,130,2013-12-03 02:15:00
8:35 PM,33.8,33.4,99,29.66,2.0,SE,10.4,-,0.04,Snow,Light Snow,130,2013-12-03 02:35:00
8:55 PM,33.8,33.8,100,29.66,2.0,ESE,11.5,17.3,0.06,Snow,Light Snow,120,2013-12-03 02:55:00
9:15 PM,33.8,33.8,100,29.66,2.5,ESE,13.8,-,0.01,Snow,Light Snow,120,2013-12-03 03:15:00
9:35 PM,33.8,33.8,100,29.65,2.0,ESE,18.4,21.9,0.03,Snow,Light Snow,120,2013-12-03 03:35:00
9:55 PM,33.8,33.8,100,29.64,2.5,ESE,13.8,20.7,0.04,Snow,Light Snow,120,2013-12-03 03:55:00
10:15 PM,33.8,33.8,100,29.64,2.5,ESE,12.7,-,0.01,Snow,Light Snow,120,2013-12-03 04:15:00
10:35 PM,33.6,33.6,100,29.64,2.5,ESE,13.8,-,0.01,Snow,Light Snow,120,2013-12-03 04:35:00
10:55 PM,33.8,33.8,100,29.65,2.5,ESE,13.8,18.4,0.01,Snow,Light Snow,120,2013-12-03 04:55:00
11:15 PM,33.8,33.8,100,29.65,3.0,SE,9.2,-,N/A,Snow,Light Snow,130,2013-12-03 05:15:00
11:35 PM,33.8,33.8,100,29.64,4.0,ESE,12.7,18.4,0.01,Snow,Light Snow,120,2013-12-03 05:35:00
11:55 PM,33.8,33.8,100,29.64,3.0,ESE,10.4,-,0.01,Snow,Light Snow,120,2013-12-03 05:55:00